Location: ???????
(55.3754°N, 39.3545°E)
Time: 01:13:25
(UTC+00:00)

Cosmos 2263 - Pass Details

Date: 14 April 2026
Orbit: 830 x 864 km, 70.9° (Epoch: 20 May)

Event Time Altitude Azimuth Distance (km) Brightness Sun altitude
Rises 18:54:55 0° 325° (NW) 3,390 9.1 -18.1°
Reaches altitude 10° 18:57:24 10° 329° (NNW) 2,455 7.9 -18.3°
Maximum altitude 19:02:59 62° 50° (NE) 944 4.4 -18.8°
Enters shadow 19:05:35 32° 119° (ESE) 1,421 4.9 -19.0°
